Location: Wanzleben
(52.0609°N, 11.4408°E)
Time: 17:50:13
(UTC+00:00)

COSMOS 2406 - Pass Details

Date: 18 January 2021
Orbit: 841 x 865 km, 71.0° (Epoch: 05 March)

Event Time Altitude Azimuth Distance (km) Brightness Sun altitude
Rises 19:30:47 0° 328° (NNW) 3,460 6.9 -35.1°
Reaches altitude 10° 19:33:16 10° 326° (NW) 2,519 6.1 -35.5°
Enters shadow 19:36:27 34° 317° (NW) 1,403 4.6 -36.0°
